Temp
29 28 28 25 25 24 26 31 32 32 31 31 32 30 28 28 28 24 22 22 23 22 21 22 22 21 21 22 23 23 22 22 22 23 23 23 22 22 23 23 23 22 22 21 21 21 21 21 22
29 28 27 22 24 24 25 30 31 31 31 31 31 30 28 26 26 22 22 23 23 22 22 21 22 21 21 21 22 23 23 23 24 24 24 23 23 23 22 22 22 22 21 21 21 21 21 21 21
28 27 24 23 23 24 26 30 31 32 33 32 31 31 28 25 24 24 22 22 23 22 22 22 22 21 21 21 22 22 21 22 23 23 23 22 22 22 21 21 21 21 21 21 21 21 21 21 21
28 25 25 26 24 24 24 26 31 31 31 30 31 28 28 28 26 24 22 22 22 22 22 22 22 21 21 21 21 21 21 21 21 22 21 21 21 21 21 21 21 21 21 21 21 21 21 21 21
26 24 24 26 27 27 26 28 31 29 27 26 30 27 27 28 24 22 22 22 23 22 22 22 21 21 21 21 21 21 21 21 21 21 21 21 21 21 21 21 21 21 21 21 21 21 21 21 21
26 25 25 27 29 29 29 31 29 29 29 30 29 28 26 25 24 22 22 23 23 22 22 22 21 22 21 21 21 21 21 21 21 21 21 21 21 21 20 21 21 21 21 21 21 20 20 20 22
28 26 28 29 29 30 31 31 30 28 27 28 28 26 26 25 23 22 22 23 23 22 22 22 21 21 21 21 21 21 21 21 21 21 21 21 21 20 21 21 21 21 21 21 21 21 20 21 21
30 28 31 30 29 30 32 32 27 28 26 26 26 24 26 25 24 23 23 22 22 22 22 21 21 21 21 21 21 21 21 21 21 21 21 21 21 21 21 21 21 21 21 21 21 21 21 21 21
31 28 28 30 30 31 32 29 29 29 26 27 25 24 26 26 24 23 22 21 21 21 21 21 21 21 21 21 21 21 21 21 21 21 20 21 21 21 22 22 22 21 21 21 21 21 21 21 22
30 27 33 33 31 31 32 29 28 27 26 24 24 26 27 26 25 24 22 21 21 21 21 22 22 22 21 21 21 21 21 21 23 22 21 21 21 21 21 22 21 21 22 22 22 21 21 22 22
32 31 34 34 33 33 33 32 33 26 25 24 23 24 26 27 24 23 23 22 22 22 22 22 22 22 22 22 21 21 21 22 23 22 21 21 22 22 22 22 22 22 22 22 22 21 21 22 23
33 36 34 34 34 34 32 32 31 29 30 28 26 27 26 27 25 24 23 23 22 22 23 23 22 22 22 23 22 22 22 22 23 22 21 22 22 21 22 22 22 22 22 22 22 22 23 22 23
34 35 35 35 35 34 34 32 31 31 29 28 27 27 27 27 27 25 24 24 23 22 23 23 23 23 23 23 22 22 22 22 22 22 22 22 22 22 22 22 22 22 23 23 22 22 23 23 24
36 36 36 35 34 35 33 33 33 31 29 28 28 27 28 28 26 26 25 25 23 23 23 24 23 23 23 23 23 23 22 22 22 22 22 22 22 22 22 22 22 23 23 23 23 23 23 24 25
35 35 35 36 36 34 33 32 31 30 30 28 28 28 28 28 27 27 26 26 24 24 24 24 24 24 24 23 23 23 23 22 22 23 23 22 22 22 23 23 23 22 23 23 24 23 23 23 23
33 33 32 34 36 35 33 30 32 29 29 28 29 29 29 28 27 27 27 26 25 25 24 24 24 24 24 24 23 23 23 23 23 22 23 23 23 23 23 24 24 23 23 24 24 25 25 23 22
30 30 32 34 34 35 34 32 32 30 30 29 29 29 29 28 28 28 27 27 25 26 24 25 24 24 24 24 23 23 24 23 23 23 23 23 23 23 23 24 24 24 24 24 24 24 25 23 23
30 32 34 32 34 34 35 34 31 31 31 31 30 30 30 28 28 29 28 27 25 26 25 25 24 25 24 24 23 23 24 23 23 23 23 23 23 23 23 24 23 24 24 25 25 25 25 25 23
30 34 33 35 34 34 32 33 32 32 31 30 29 30 29 28 28 28 28 27 26 25 25 25 25 25 24 24 23 23 24 24 23 23 24 24 23 24 24 24 24 24 25 25 25 25 24 23 21
34 34 32 33 35 34 33 32 31 31 32 30 30 30 30 28 27 28 28 27 26 25 25 25 25 25 25 24 24 24 24 24 24 24 24 24 24 24 24 24 25 24 25 25 25 25 25 23 23
33 33 32 32 34 33 33 30 29 32 32 31 31 31 30 29 28 28 28 27 26 25 25 25 25 25 25 25 25 24 24 24 23 24 24 24 24 24 24 24 25 25 25 25 25 25 25 24 22
32 33 33 34 31 30 32 28 29 33 32 32 30 30 30 30 29 29 27 27 26 26 25 25 25 26 25 25 25 24 24 23 24 24 24 24 24 24 24 24 24 24 24 25 25 24 25 25 25
32 33 34 33 31 30 30 28 29 31 33 32 30 30 31 31 29 29 28 27 26 26 25 25 25 25 25 25 25 24 24 24 24 24 24 24 24 24 24 24 24 25 25 26 25 25 25 25 25
35 34 28 26 25 27 29 28 28 30 33 33 34 32 31 31 30 30 30 28 27 26 25 25 25 25 25 25 25 25 24 24 24 24 24 24 24 24 24 24 24 25 24 25 25 25 25 25 25
34 27 26 28 25 27 26 29 29 32 33 31 28 29 30 31 30 29 28 28 27 26 25 25 25 24 25 25 25 25 25 25 24 24 25 24 24 24 24 24 24 24 24 24 24 25 24 25 25
32 27 26 31 27 28 28 30 29 29 30 29 29 28 28 26 24 25 28 29 28 26 25 25 24 24 24 25 25 25 25 25 24 24 25 25 24 24 25 24 24 24 24 24 24 24 25 25 24
33 31 29 28 27 28 29 29 31 29 28 28 28 27 26 25 21 21 24 27 26 27 26 25 25 24 24 25 25 25 25 24 24 24 24 24 25 25 25 25 25 24 24 24 24 24 25 25 25
34 32 30 25 30 29 28 29 28 27 26 27 26 26 24 23 26 23 24 24 27 27 27 25 25 24 23 24 25 25 25 25 25 25 24 24 25 24 24 25 24 24 24 24 24 24 24 24 24
29 28 28 26 25 26 26 26 27 26 26 26 25 24 23 25 26 25 23 23 23 27 28 26 25 25 24 24 23 23 24 24 24 24 24 24 24 24 24 24 24 24 24 24 24 24 24 24 24
31 31 26 25 29 25 24 26 28 25 24 25 23 24 22 23 24 24 23 22 24 24 25 20 25 23 24 25 25 23 25 24 24 24 24 24 24 24 24 24 24 24 24 24 24 24 24 24 24
Height
768 766 766 765 793 801 808 790 764 772 774 762 759 773 784 779 790 814 792 797 802 806 811 814 816 818 820 821 823 824 827 830 832 834 835 837 839 841 843 844 844 845 847 849 851 852 854 854 854
767 766 767 781 813 828 818 786 785 774 766 761 766 771 781 795 782 792 798 799 802 807 812 814 817 819 821 823 824 826 828 831 832 834 837 839 840 842 844 844 845 846 848 850 852 853 855 854 854
770 766 781 804 822 829 821 790 782 772 765 767 772 770 782 794 791 793 797 802 804 810 812 815 817 821 823 825 826 827 830 832 834 836 839 841 842 844 846 846 846 846 848 851 852 853 854 854 854
770 770 784 806 826 818 813 797 775 776 772 774 774 787 781 782 784 789 798 804 807 811 814 815 818 822 824 825 828 830 831 834 836 838 841 842 844 846 847 848 848 847 850 852 852 853 854 854 854
769 779 807 810 807 799 791 784 772 782 785 782 776 794 790 788 790 793 799 804 807 812 815 817 819 822 824 826 829 831 832 834 837 840 841 842 845 847 848 849 848 848 850 852 852 853 854 854 854
778 782 812 813 797 787 784 772 780 779 783 779 786 791 795 790 791 797 800 803 807 811 815 819 822 823 825 828 830 832 834 835 839 841 841 842 846 848 848 849 849 850 851 851 853 854 855 855 854
775 789 800 795 795 789 779 768 780 786 787 788 783 796 795 795 796 798 802 804 808 812 816 819 824 826 827 829 832 834 836 837 840 841 841 842 844 846 847 848 849 851 851 852 853 854 856 857 857
760 775 788 791 797 795 771 771 780 779 786 779 779 798 796 793 797 798 805 807 810 812 816 819 824 827 828 830 833 835 837 838 840 840 841 841 843 845 846 848 849 850 851 853 855 856 859 858 859
749 789 804 794 791 784 767 780 775 772 781 779 785 787 787 791 798 800 809 811 813 815 817 820 824 826 828 831 834 836 837 838 839 841 842 842 843 845 847 849 848 850 850 853 856 857 858 857 857
762 794 779 766 769 773 768 773 776 784 786 788 790 787 788 795 797 799 804 809 813 814 816 819 823 826 828 830 832 834 837 838 838 841 842 842 842 844 846 848 849 850 850 853 854 855 855 857 858
758 781 762 759 758 757 763 766 760 783 793 782 786 785 788 795 800 798 802 802 804 808 814 818 822 825 827 828 831 835 836 836 838 840 842 841 842 843 844 845 847 849 851 852 851 853 856 857 856
766 751 753 754 750 754 763 757 767 770 768 763 772 780 787 790 796 793 798 802 804 806 810 815 820 823 825 827 830 832 835 837 838 840 842 841 841 841 843 846 846 848 850 850 850 852 854 855 855
759 753 748 745 747 751 750 761 762 766 762 767 776 781 783 788 792 793 793 798 801 804 808 813 818 819 822 825 828 831 833 835 837 839 840 840 842 842 841 843 844 845 848 848 848 851 852 853 853
746 746 747 745 749 749 758 760 757 767 762 768 772 778 779 783 786 791 795 797 799 802 806 810 814 816 818 822 826 829 832 834 836 838 839 841 842 841 839 839 841 843 845 846 848 849 851 852 852
749 761 753 749 747 755 751 772 771 760 761 769 770 772 776 777 784 783 785 791 793 798 803 807 811 814 817 820 824 826 829 831 834 836 837 839 842 840 835 838 841 844 845 845 847 849 853 853 854
765 764 787 758 748 747 755 792 762 759 763 770 770 768 772 775 777 781 784 787 792 796 800 804 808 810 814 818 823 825 826 829 831 834 835 838 840 840 839 841 843 844 845 844 846 851 851 854 853
781 798 783 771 749 750 759 777 758 756 759 766 768 766 767 769 774 777 780 783 786 790 795 801 804 807 811 815 820 823 824 827 828 831 834 837 839 840 840 841 843 843 845 846 847 849 848 850 853
802 787 772 781 761 755 760 763 757 753 755 758 761 761 762 766 766 771 776 779 783 788 793 798 802 805 809 814 817 821 823 824 827 829 832 835 837 839 841 841 841 843 844 845 846 848 852 852 849
782 772 778 759 751 761 767 762 760 750 753 760 760 760 760 761 762 767 772 777 782 786 791 795 799 803 807 813 816 818 820 820 823 827 831 832 835 836 838 840 841 842 843 845 845 846 847 850 850
766 774 779 762 749 759 763 766 753 751 749 751 753 755 756 759 762 766 770 774 778 781 787 792 796 801 805 810 813 815 817 819 821 824 828 830 831 833 835 837 839 839 842 843 843 842 843 845 845
771 778 779 778 759 756 761 777 767 745 741 745 743 743 748 752 757 761 765 768 774 779 783 788 793 798 803 808 813 816 818 819 820 823 824 826 829 831 833 835 837 837 838 840 840 842 842 842 843
785 760 762 764 781 805 765 819 777 749 748 744 746 748 747 750 753 757 761 766 769 773 780 785 791 796 801 806 810 812 813 816 817 819 822 825 827 829 831 833 833 835 837 837 838 841 843 842 840
774 752 759 763 777 785 783 806 783 759 755 749 746 743 742 742 746 752 757 760 767 773 778 784 789 794 798 802 806 808 810 813 816 819 821 824 825 828 828 830 831 831 834 835 836 839 840 840 840
742 754 777 784 799 819 793 798 796 776 755 743 733 732 734 739 745 749 754 762 767 771 775 779 783 789 793 798 803 806 807 810 813 816 817 820 822 824 827 827 828 829 831 832 833 836 837 839 839
753 793 831 824 834 824 796 796 788 756 745 751 749 744 744 739 743 752 759 764 767 768 772 777 781 784 788 791 796 801 805 808 810 811 813 815 818 820 823 824 824 826 827 829 830 833 835 837 837
766 789 827 824 839 819 786 802 797 768 752 750 746 746 755 763 769 776 765 762 762 767 767 770 777 782 786 788 790 795 799 803 806 808 809 810 811 814 817 820 821 823 823 825 827 828 831 833 833
763 785 771 800 806 812 802 788 769 768 763 759 756 750 757 769 782 778 781 771 767 766 769 768 772 777 780 781 785 787 792 795 798 803 805 806 808 810 813 815 817 819 821 822 823 824 826 828 830
752 751 791 808 821 831 814 803 803 789 782 770 766 762 768 775 782 797 786 770 765 766 769 773 776 780 778 778 777 780 782 789 792 796 800 801 803 805 807 810 812 814 816 818 820 821 824 825 826
777 784 782 790 807 834 837 824 783 789 778 773 771 770 774 773 783 788 776 771 765 760 760 765 763 771 781 780 781 785 780 782 787 789 792 796 798 799 801 804 807 809 811 813 816 818 820 822 822
763 776 791 814 804 812 824 820 773 786 782 775 780 779 780 778 782 781 782 774 771 767 767 757 771 782 780 778 772 784 787 783 783 785 786 789 791 794 795 798 801 803 805 808 811 813 815 817 819
Wind_Speed
7 3 7 6 5 4 5 3 9 9 4 3 10 6 6 4 3 3 20 21 34 32 29 25 24 22 22 22 22 23 22 21 22 21 20 18 17 15 13 12 10 9 8 7 8 7 8 9 8
5 8 9 3 4 4 5 10 8 13 11 11 15 10 9 3 8 15 15 35 36 34 30 26 26 24 24 23 23 22 21 19 20 18 17 15 14 11 10 10 9 9 8 7 7 7 8 8 9
8 7 4 4 3 1 3 9 16 14 14 10 6 11 6 6 15 15 24 33 36 32 30 27 26 24 23 22 22 23 20 17 16 15 13 12 11 9 7 8 9 9 9 7 6 7 7 7 8
4 5 3 4 7 5 2 7 6 13 9 13 5 6 6 8 21 24 36 34 34 33 29 27 25 23 22 22 21 20 19 16 14 13 12 11 9 8 8 8 8 8 8 7 6 7 7 6 8
6 2 3 1 7 9 7 8 6 11 7 2 4 8 6 11 28 41 36 35 35 31 27 26 25 24 23 21 20 20 18 16 15 14 12 9 8 8 8 9 8 8 8 7 5 6 7 6 7
3 2 4 1 2 12 11 8 17 17 13 14 12 6 1 34 39 33 35 36 34 32 27 24 24 25 23 21 19 18 17 16 15 13 11 10 8 7 9 9 8 8 7 7 5 5 6 6 8
5 4 3 3 3 5 6 4 12 14 12 5 6 5 9 21 30 34 35 35 34 32 29 26 23 21 21 20 19 18 16 14 13 12 11 9 9 9 10 9 7 6 6 6 6 6 7 7 7
2 4 3 2 3 1 2 7 14 12 5 6 5 5 12 27 31 34 32 33 32 32 29 28 25 23 22 20 18 17 14 12 12 11 10 9 9 9 9 8 7 6 5 6 6 6 6 6 5
4 4 3 5 5 4 4 6 1 7 9 4 3 5 3 36 33 31 24 23 25 27 29 28 27 25 23 20 17 15 14 14 11 9 8 8 9 8 7 6 5 5 6 6 5 6 6 8 8
4 4 3 6 6 6 10 10 10 5 4 1 2 5 17 33 32 29 25 22 22 26 28 29 27 25 21 19 18 17 16 15 13 9 9 7 8 5 6 5 5 5 5 5 5 7 8 8 8
4 4 5 4 7 8 7 9 8 14 4 7 12 13 14 28 24 27 25 31 35 32 28 29 27 25 20 19 19 17 16 16 14 12 8 7 6 5 5 8 6 6 6 6 6 7 9 10 10
6 5 6 6 6 7 8 8 6 10 6 11 13 15 12 19 22 28 27 27 28 30 30 29 26 24 21 18 18 17 15 16 14 13 7 6 6 8 5 3 8 8 8 8 7 8 10 11 11
6 5 6 8 7 8 7 7 7 6 10 13 13 12 15 18 21 26 30 28 30 28 30 31 28 24 21 19 18 18 13 15 14 13 9 5 6 4 5 3 9 12 9 11 10 8 11 11 9
5 3 3 7 6 8 7 5 7 6 17 17 18 16 20 21 23 21 23 25 28 30 32 30 30 23 20 21 17 18 14 13 15 14 11 8 6 4 5 6 5 10 11 12 9 11 13 11 8
7 1 2 2 4 4 10 1 8 14 18 18 19 18 19 22 27 28 31 30 33 33 32 33 31 26 22 23 19 17 16 15 14 14 14 13 9 4 10 9 6 7 9 11 11 12 12 12 9
5 3 3 5 4 5 6 5 6 17 18 18 18 17 19 18 28 31 31 32 31 32 33 33 30 29 25 22 20 17 14 16 14 15 16 14 12 9 11 9 9 6 6 11 12 7 3 2 8
5 5 2 1 6 4 4 5 7 18 16 17 17 17 16 17 24 30 33 34 35 37 34 34 33 30 28 24 21 17 13 16 14 13 17 15 15 13 13 14 13 9 9 12 11 9 2 2 2
6 4 0 5 7 4 4 4 8 14 14 17 16 16 14 17 21 31 32 34 32 37 37 36 33 30 29 26 24 18 14 17 15 13 19 17 19 17 15 14 13 14 10 9 10 9 6 12 13
7 2 2 3 7 6 7 6 8 12 8 11 12 15 14 15 19 29 29 28 30 33 36 37 36 33 32 29 27 23 20 17 18 16 17 18 20 18 17 15 13 13 10 7 6 4 9 12 16
1 2 4 5 4 3 3 7 9 11 15 12 16 16 16 10 14 20 26 27 31 35 36 35 38 36 35 33 32 25 21 21 19 19 22 15 18 19 17 14 16 11 10 5 6 7 4 5 9
2 2 6 6 3 3 1 9 7 6 10 8 17 20 16 18 17 16 21 29 31 33 36 38 40 39 38 34 27 18 20 20 20 19 22 19 21 20 18 14 16 13 11 8 8 8 6 4 9
2 4 8 5 3 2 4 5 7 4 7 13 12 15 16 16 14 15 18 25 31 34 37 39 40 40 38 34 29 24 26 20 23 22 22 19 22 20 20 17 16 16 12 14 10 7 7 5 7
8 6 3 2 2 2 2 4 7 3 3 5 9 15 17 18 18 18 17 30 30 31 33 35 39 39 38 35 31 27 26 23 23 24 23 23 21 23 21 18 15 19 18 16 9 10 9 7 8
5 3 8 6 4 3 1 5 5 3 5 4 4 14 19 18 17 18 22 24 27 29 30 35 40 39 38 36 32 29 30 24 23 25 25 28 27 26 24 21 18 20 17 14 12 14 12 10 9
4 7 4 4 5 5 1 4 6 5 3 17 22 22 8 11 17 14 11 15 22 28 29 31 36 36 39 37 36 31 29 29 26 26 27 27 27 28 28 24 22 21 20 16 15 17 14 12 12
4 8 5 2 3 5 4 4 8 14 15 15 20 22 27 24 16 13 2 12 22 25 30 33 33 33 37 38 38 34 30 30 30 29 28 29 30 30 29 27 25 23 21 20 18 18 18 16 14
2 0 6 4 1 3 2 4 2 12 14 13 14 16 23 21 23 25 32 15 8 20 26 33 33 33 37 41 39 36 33 34 31 32 30 31 28 28 30 29 30 29 26 24 23 21 21 19 18
1 4 3 4 1 2 3 1 2 5 6 8 11 12 17 13 18 11 14 16 17 5 15 19 19 22 30 32 38 37 35 37 33 30 30 30 33 28 27 30 31 30 32 29 27 26 24 22 21
7 7 5 4 5 5 3 4 3 6 7 10 7 4 11 10 9 6 14 24 22 4 22 23 26 25 21 23 22 26 35 36 37 35 33 32 30 31 30 31 29 29 31 34 31 29 27 26 24
6 3 4 5 4 1 5 4 3 4 4 9 9 6 8 9 5 10 11 18 25 19 11 9 6 13 16 23 20 21 32 32 35 36 35 33 33 31 30 31 32 32 31 33 33 32 31 30 27
Wind_Direction
0 342 331 9 44 50 351 78 143 128 80 70 112 120 124 91 163 187 147 159 155 153 154 155 153 150 149 147 145 139 132 129 129 128 123 121 120 118 118 120 124 132 135 133 134 134 126 128 131
36 84 55 23 60 34 335 321 69 97 97 95 102 94 57 86 68 113 123 155 154 154 155 156 157 156 154 151 149 144 139 137 134 128 128 125 122 120 123 124 129 124 124 134 146 145 131 142 146
38 56 75 92 71 110 298 4 104 107 110 86 92 93 93 108 113 132 146 150 153 153 155 156 158 159 156 154 153 146 145 145 141 136 133 132 131 131 125 131 127 127 127 132 138 144 149 146 148
76 25 61 113 179 187 147 261 66 98 56 13 16 61 68 143 140 146 152 150 152 156 158 159 160 158 156 156 155 153 150 151 149 144 144 149 146 139 141 139 132 138 130 131 143 145 147 152 152
94 78 106 118 134 159 232 257 101 93 95 27 41 106 103 114 130 138 146 154 155 158 162 164 162 157 160 157 158 160 158 155 153 151 155 161 160 153 148 141 147 139 135 147 158 149 149 164 160
20 104 44 70 60 153 200 167 116 88 80 91 87 90 122 135 136 146 150 152 156 156 159 161 164 165 164 163 162 160 158 158 152 157 167 170 165 165 151 147 158 156 152 150 160 170 159 162 153
202 127 201 116 70 43 104 110 100 102 87 67 152 116 137 140 145 145 152 153 156 157 160 160 161 162 163 163 161 157 160 159 157 166 176 172 171 166 156 161 170 173 165 172 178 183 170 178 187
257 104 100 93 141 65 7 108 112 106 155 169 152 163 161 146 147 142 148 150 155 159 164 163 161 163 163 158 158 158 156 156 164 175 180 173 168 167 161 175 173 180 193 193 192 198 193 185 199
112 67 136 169 145 176 104 106 10 103 131 215 124 121 150 144 138 129 132 142 151 161 167 168 168 170 164 158 161 163 160 156 161 166 163 178 164 170 170 187 185 190 213 207 186 193 201 199 213
97 92 53 154 160 149 142 133 157 113 134 76 141 144 135 147 146 143 150 156 164 170 177 175 173 172 170 171 176 178 174 176 175 160 160 166 160 174 187 191 214 203 220 227 198 206 212 216 203
143 130 145 122 144 160 156 151 163 134 206 213 181 185 158 151 153 151 159 167 176 177 179 182 179 181 184 183 185 184 187 186 182 173 161 166 182 206 221 216 212 210 215 227 219 206 221 230 235
106 121 168 191 175 152 167 143 144 174 195 186 168 166 166 165 171 163 170 176 174 177 183 181 182 186 189 191 190 188 189 193 189 186 176 191 234 203 195 234 221 227 233 233 227 235 232 233 246
125 189 182 184 175 175 146 156 175 145 138 161 145 158 179 174 174 174 172 176 177 180 186 186 185 185 190 195 196 196 192 194 198 189 180 209 193 199 157 241 266 230 256 235 221 229 226 231 231
166 211 194 199 188 190 156 175 108 149 143 166 171 171 174 179 184 171 173 180 177 184 190 190 192 194 194 195 196 198 196 188 193 186 188 195 204 233 250 285 287 234 229 213 213 221 232 221 212
286 216 331 210 166 157 127 112 148 162 158 159 185 176 180 188 181 183 181 184 183 189 195 194 194 195 197 196 192 194 196 195 194 196 200 206 203 187 108 198 184 195 231 228 226 230 234 233 250
332 116 187 247 186 209 116 250 163 170 162 170 186 191 183 198 188 188 185 190 185 187 192 192 193 195 200 201 199 192 202 210 204 205 202 189 196 207 179 155 201 191 226 226 224 219 189 229 338
354 261 196 118 221 229 146 229 200 176 177 177 191 195 196 191 189 191 191 193 188 193 190 195 196 198 201 201 199 197 202 209 210 207 190 185 185 192 205 210 201 214 227 235 226 238 198 305 125
308 200 212 182 230 228 229 273 178 187 177 180 180 186 179 175 191 186 184 193 187 191 194 192 198 202 203 204 199 197 206 214 211 206 194 191 190 191 199 212 213 210 223 233 239 244 171 179 182
256 30 303 238 200 165 217 238 206 201 201 173 183 178 184 180 190 187 185 181 180 187 191 194 195 201 203 200 197 192 200 211 205 204 203 198 197 203 210 212 222 208 217 201 235 201 159 155 159
321 313 294 296 218 127 186 262 243 196 209 182 184 185 186 172 171 188 187 179 181 184 190 191 198 200 202 199 195 193 196 202 209 208 205 208 204 206 209 210 204 198 193 183 220 247 164 156 192
313 267 282 233 344 327 162 324 335 217 198 177 195 187 184 181 172 183 187 187 181 182 188 191 194 201 200 201 196 195 196 207 213 212 207 209 202 207 216 206 194 212 199 207 217 236 201 158 200
314 206 271 236 63 262 88 280 317 244 194 198 181 187 187 185 182 173 171 178 181 187 190 194 196 201 201 201 196 197 198 203 217 215 203 199 193 202 212 215 217 201 200 219 206 205 201 195 226
242 255 67 74 104 50 93 90 264 8 247 226 199 191 191 186 178 183 178 179 182 183 185 192 197 199 201 202 201 200 204 213 218 220 213 205 197 202 210 212 210 212 223 205 212 223 212 197 211
254 29 37 36 49 17 14 122 298 203 217 268 220 193 188 183 185 190 183 173 181 184 182 187 195 199 202 203 205 207 209 211 214 218 212 211 214 212 213 214 210 208 218 213 219 224 213 206 207
83 53 351 2 2 233 318 64 250 283 321 73 70 59 48 188 179 176 174 170 181 184 185 188 194 196 203 204 207 210 213 213 217 215 215 216 219 214 211 214 218 215 219 222 224 228 230 218 219
204 146 158 284 209 264 347 40 3 75 85 69 74 77 60 38 35 3 266 183 182 194 186 186 192 197 203 207 210 213 212 215 222 226 225 223 223 218 218 218 220 217 222 226 228 228 232 240 241
257 298 193 136 320 61 328 342 143 39 47 51 63 69 82 60 51 9 318 305 302 203 201 193 194 196 203 210 213 215 218 215 222 227 231 229 229 228 228 226 226 222 222 221 223 228 236 241 240
115 198 34 12 86 53 302 322 246 26 37 47 55 77 84 100 110 189 328 337 293 322 209 209 207 205 206 208 211 216 215 217 220 222 229 231 232 231 227 223 224 226 223 222 220 228 236 238 239
356 1 25 109 137 151 184 261 226 200 146 93 87 78 101 88 100 96 54 28 24 73 202 194 194 202 210 209 220 229 221 221 224 225 228 232 234 234 232 227 225 231 228 224 224 228 232 235 238
108 26 79 108 287 33 135 272 233 59 76 108 64 62 50 68 92 76 59 69 43 37 46 9 328 265 221 223 208 251 253 228 227 230 230 230 232 233 234 234 231 232 237 232 226 227 231 233 236